Location: Canet
(43.3261°N, 5.3723°E)
Time: 17:37:50
(UTC+00:00)

CZ-3B R/B - Pass Details

Date: 24 January 2021
Orbit: 279 x 17414 km, 54.8° (Epoch: 02 March)

Event Time Altitude Azimuth Distance (km) Brightness Sun altitude
Rises 19:55:11 0° 299° (WNW) 2,680 6.2 -35.4°
Reaches altitude 10° 19:56:36 10° 291° (WNW) 2,118 5.5 -35.6°
Maximum altitude 20:00:51 45° 217° (SW) 1,670 4.2 -36.4°
Enters shadow 20:03:36 36° 178° (S) 2,517 4.9 -36.9°
Exits shadow 20:13:03 14° 155° (SSE) 6,272 6.8 -38.6°
Drops below altitude 10° 20:16:32 10° 153° (SSE) 7,571 7.2 -39.2°
Sets 20:28:13 0° 150° (SSE) 11,424 8.2 -41.3°
